Natchez, MS

2:01 PM CST on November 22, 2019 (GMT -0600)
Hardy-Anders-Adams County

Weather History for KHEZ - September, 2019

Change the Weather History Date:

Tuesday, September 24, 2019

  Actual Average Record
Temperature  
Mean Temperature 80 °F -  
Max Temperature 91 °F 85 °F 94 °F (1945)
Min Temperature 69 °F 63 °F 48 °F (1990)
Cooling Degree Days 15    
Growing Degree Days 30 (Base 50)    
Moisture  
Dew Point 69 °F    
Average Humidity 75    
Maximum Humidity 93    
Minimum Humidity 47    
Precipitation  
Precipitation 0.00 in - - ()
Sea Level Pressure  
Sea Level Pressure 29.97 in    
Wind  
Wind Speed 3 mph (SSW)    
Max Wind Speed 7 mph    
Max Gust Speed -    
Visibility 10 miles    
Events      
Averages and records for this station are not official NWS values.
T = Trace of Precipitation, MM = Missing Value Source: NWS Daily Summary

Daily Weather History Graph

Daily Weather History Graph

Search for Another Location

Airport or City:

Astronomy

Sep. 24, 2019 Rise Set
Actual Time 6:54 AM CDT 6:59 PM CDT
Civil Twilight 6:30 AM CDT 7:23 PM CDT
Nautical Twilight 6:01 AM CDT 7:51 PM CDT
Astronomical Twilight 5:33 AM CDT 8:20 PM CDT
Moon 2:02 AM CDT (9/24) 4:24 PM CDT (9/24)
Length of Visible Light 12h 53m
Length of Day
12h 04m
Waning Crescent, 23% of the Moon is Illuminated
Sep 24
Waning Crescent
Sep 28
New
Oct 5
First Quarter
Oct 13
Full
Oct 21
Last Quarter

Hourly Weather History & Observations

Time (CDT) Temp. Heat Index Dew Point Humidity Pressure Visibility Wind Dir Wind Speed Gust Speed Precip Events Conditions
12:56 AM 72.0 °F - 69.1 °F 91% 30.00 in 10.0 mi SSE 5.8 mph - N/A   Clear
1:56 AM 72.0 °F - 69.1 °F 91% 30.00 in 10.0 mi Calm Calm - N/A   Clear
2:56 AM 70.0 °F - 68.0 °F 93% 30.00 in 10.0 mi South 3.5 mph - N/A   Clear
3:56 AM 70.0 °F - 68.0 °F 93% 30.00 in 10.0 mi SSE 5.8 mph - N/A   Clear
4:56 AM 70.0 °F - 68.0 °F 93% 30.00 in 10.0 mi Calm Calm - N/A   Clear
5:56 AM 69.1 °F - 66.9 °F 93% 30.01 in 10.0 mi SSE 3.5 mph - N/A   Clear
6:56 AM 69.1 °F - 66.9 °F 93% 30.02 in 10.0 mi Calm Calm - N/A   Clear
7:56 AM 73.0 °F - 69.1 °F 87% 30.02 in 10.0 mi Calm Calm - N/A   Clear
8:56 AM 78.1 °F - 72.0 °F 81% 30.03 in 10.0 mi Variable 3.5 mph - N/A   Clear
9:56 AM 82.9 °F 87.5 °F 71.1 °F 67% 30.03 in 10.0 mi WNW 6.9 mph - N/A   Clear
10:56 AM 86.0 °F 91.5 °F 71.1 °F 61% 30.02 in 10.0 mi Variable 4.6 mph - N/A   Clear
11:56 AM 87.1 °F 92.0 °F 70.0 °F 57% 30.01 in 10.0 mi Variable 3.5 mph - N/A   Clear
12:56 PM 88.0 °F 92.1 °F 69.1 °F 53% 29.99 in 9.0 mi Variable 3.5 mph - N/A   Clear
1:56 PM 88.0 °F 92.1 °F 69.1 °F 53% 29.96 in 10.0 mi North 3.5 mph - N/A   Mostly Cloudy
2:56 PM 88.0 °F 92.1 °F 69.1 °F 53% 29.93 in 10.0 mi NW 4.6 mph - N/A   Overcast
3:56 PM 90.0 °F 94.5 °F 69.1 °F 50% 29.91 in 10.0 mi South 5.8 mph - N/A   Scattered Clouds
4:56 PM 91.0 °F 95.2 °F 68.0 °F 47% 29.90 in 10.0 mi SW 5.8 mph - N/A   Clear
5:56 PM 89.1 °F 92.9 °F 68.0 °F 50% 29.89 in 10.0 mi SW 3.5 mph - N/A   Clear
7:56 PM 80.1 °F 83.2 °F 70.0 °F 71% 29.90 in 10.0 mi SSW 3.5 mph - N/A   Clear
8:56 PM 77.0 °F - 70.0 °F 79% 29.92 in 10.0 mi Calm Calm - N/A   Clear
9:56 PM 75.0 °F - 70.0 °F 84% 29.92 in 10.0 mi SSE 3.5 mph - N/A   Clear
10:56 PM 75.0 °F - 70.0 °F 84% 29.92 in 10.0 mi Calm Calm - N/A   Clear
11:56 PM 73.0 °F - 70.0 °F 90% 29.91 in 10.0 mi SSW 3.5 mph - N/A   Clear